Weather History for Truckee-Tahoe, CA

Change the Weather History Date:

Saturday, December 7, 2013

  Actual Average Record
Temperature  
Mean Temperature 11 °F -  
Max Temperature 24 °F 41 °F 60 °F (2006)
Min Temperature -2 °F 19 °F -7 °F (1956)
Degree Days  
Heating Degree Days 54    
Moisture  
Dew Point 9 °F    
Average Humidity 81    
Maximum Humidity 93    
Minimum Humidity 62    
Precipitation  
Precipitation 0.07 in - - ()
Snow  
Snow 0.00 in - - ()
Snow Depth 1.00 in    
Sea Level Pressure  
Sea Level Pressure 29.83 in    
Wind  
Wind Speed 7 mph (WSW)    
Max Wind Speed 15 mph    
Max Gust Speed 29 mph    
Visibility 5 miles    
Events Snow    
Averages and records for this station are not official NWS values.
T = Trace of Precipitation, MM = Missing Value Source: NWS Daily Summary

Daily Weather History Graph

Daily Weather History Graph

Search for Another Location

Airport:

Trip Planner

Search our weather history database for the weather conditions in past years. The results will help you decide how hot, cold, wet, or windy it might be!

Date:

Astronomy

Dec. 07, 2013 Rise Set
Actual Time 7:07 AM PST 4:37 PM PST
Civil Twilight 6:37 AM PST 5:07 PM PST
Nautical Twilight 6:03 AM PST 5:40 PM PST
Astronomical Twilight 5:31 AM PST 6:13 PM PST
Moon 10:56 AM PST (12/7) 10:23 PM PST (12/7)
Length of Visible Light 10h 29m
Length of Day
9h 29m
Waxing Crescent, 30% of the Moon is Illuminated
Dec 7
Waxing Crescent
Dec 9
First Quarter
Dec 17
Full
Dec 25
Last Quarter
Jan 1
New

Hourly Weather History & Observations

Time (PST) Temp. Windchill Dew Point Humidity Pressure Visibility Wind Dir Wind Speed Gust Speed Precip Events Conditions
12:15 AM 24.8 °F 19.1 °F 21.2 °F 86% 29.65 in 0.8 mi SW 4.6 mph - N/A Snow Light Snow
12:35 AM 24.8 °F 16.9 °F 21.2 °F 86% 29.65 in 0.5 mi SW 6.9 mph - 0.02 in Snow Snow
12:55 AM 24.8 °F 17.9 °F 21.2 °F 86% 29.65 in 0.5 mi SSW 5.8 mph - 0.03 in Snow Snow
1:15 AM 24.8 °F 15.3 °F 21.2 °F 86% 29.65 in 0.5 mi WSW 9.2 mph - N/A Snow Snow
1:35 AM 23.0 °F 13.1 °F 19.4 °F 86% 29.65 in 1.0 mi WNW 9.2 mph - 0.01 in Snow Light Snow
1:55 AM 23.0 °F 11.1 °F 19.4 °F 86% 29.65 in 1.0 mi WSW 12.7 mph - 0.02 in Snow Light Snow
2:15 AM 23.0 °F 11.1 °F 17.6 °F 80% 29.65 in 1.5 mi WSW 12.7 mph 27.6 mph N/A Snow Light Snow
2:35 AM 23.0 °F 11.7 °F 17.6 °F 80% 29.65 in 1.8 mi SW 11.5 mph 16.1 mph N/A Snow Light Snow
2:55 AM 23.0 °F 13.1 °F 17.6 °F 80% 29.65 in 2.0 mi WSW 9.2 mph 21.9 mph N/A Snow Light Snow
3:15 AM 23.0 °F 17.0 °F 17.6 °F 80% 29.65 in 0.5 mi WSW 4.6 mph - N/A Snow Snow
3:35 AM 21.2 °F 7.8 °F 17.6 °F 86% 29.65 in 0.8 mi West 15.0 mph 21.9 mph 0.01 in Snow Light Snow
3:55 AM 21.2 °F 11.7 °F 15.8 °F 80% 29.65 in 2.5 mi West 8.1 mph 24.2 mph 0.01 in Snow Light Snow
4:15 AM 21.2 °F 14.9 °F 15.8 °F 80% 29.66 in 1.5 mi North 4.6 mph - N/A Snow Light Snow
4:35 AM 21.2 °F 10.1 °F 14.0 °F 74% 29.66 in 2.5 mi WSW 10.4 mph 25.3 mph N/A Snow Light Snow
4:55 AM 19.4 °F 10.4 °F 12.2 °F 74% 29.66 in 3.0 mi WSW 6.9 mph 19.6 mph N/A Snow Light Snow
5:15 AM 17.6 °F 9.3 °F 15.8 °F 93% 29.67 in 0.8 mi SSW 5.8 mph - N/A Snow Light Snow
5:35 AM 19.4 °F 7.9 °F 12.2 °F 74% 29.67 in 5.0 mi WSW 10.4 mph 16.1 mph 0.01 in Snow Light Snow
6:50 AM 17.6 °F 3.2 °F 14.0 °F 86% 29.69 in 2.0 mi West 15.0 mph 19.6 mph N/A Snow Light Snow
8:45 AM 15.8 °F 0.9 °F 8.6 °F 73% 29.75 in 4.0 mi West 15.0 mph 23.0 mph N/A Snow Light Snow
9:45 AM 15.8 °F 2.1 °F 5.0 °F 62% 29.79 in 4.0 mi WSW 12.7 mph 28.8 mph N/A Snow Light Snow
10:45 AM 15.8 °F 10.2 °F 8.6 °F 73% 29.80 in 5.0 mi ESE 3.5 mph - N/A Snow Light Snow
11:55 AM 15.8 °F 2.7 °F 10.4 °F 79% 29.79 in 1.0 mi West 11.5 mph - N/A Snow Snow
12:45 PM 17.6 °F 3.2 °F 8.6 °F 68% 29.79 in 1.0 mi WNW 15.0 mph 23.0 mph N/A Snow Snow
1:45 PM 17.6 °F 6.4 °F 6.8 °F 63% 29.81 in 5.0 mi West 9.2 mph - N/A   Haze
2:45 PM 15.8 °F 2.7 °F 6.8 °F 68% 29.85 in 5.0 mi West 11.5 mph 16.1 mph N/A Snow Light Snow
3:50 PM 15.8 °F 3.4 °F 8.6 °F 73% 29.87 in 2.0 mi WNW 10.4 mph - N/A Snow Light Snow
4:45 PM 14.0 °F - 8.6 °F 79% 29.90 in 10.0 mi Calm Calm - N/A   Mostly Cloudy
4:55 PM 10.4 °F 2.2 °F 6.8 °F 85% 29.90 in 9.0 mi SE 4.6 mph - N/A Snow Light Snow
5:15 PM 10.4 °F 2.2 °F 6.8 °F 85% 29.92 in 10.0 mi ESE 4.6 mph - N/A   Scattered Clouds
5:35 PM 10.4 °F - 6.8 °F 85% 29.93 in 10.0 mi Calm Calm - N/A   Partly Cloudy
5:55 PM 10.4 °F - 6.8 °F 85% 29.94 in 10.0 mi Calm Calm - N/A   Scattered Clouds
6:15 PM 10.4 °F 4.0 °F 6.8 °F 85% 29.95 in 10.0 mi East 3.5 mph - N/A   Mostly Cloudy
6:35 PM 10.4 °F -0.4 °F 6.8 °F 85% 29.95 in 5.0 mi ENE 6.9 mph - N/A Snow Light Snow
6:55 PM 5.0 °F -4.1 °F 1.4 °F 85% 29.95 in 10.0 mi SSW 4.6 mph - N/A Snow Light Snow
7:15 PM 10.4 °F - 6.8 °F 85% 29.96 in 9.0 mi Calm Calm - N/A   Overcast
7:35 PM 8.6 °F - 6.8 °F 92% 29.95 in 5.0 mi Calm Calm - N/A Snow Light Snow
7:55 PM 6.8 °F -2.0 °F 3.2 °F 85% 29.96 in 10.0 mi SW 4.6 mph - N/A   Scattered Clouds
8:15 PM 6.8 °F -2.0 °F 5.0 °F 92% 29.97 in 10.0 mi SE 4.6 mph - N/A   Clear
8:35 PM 3.2 °F - -0.4 °F 85% 29.98 in 10.0 mi Calm Calm - N/A   Clear
8:55 PM 6.8 °F - 3.2 °F 85% 29.98 in 10.0 mi Calm Calm - N/A   Clear
9:15 PM 3.2 °F - -0.4 °F 85% 29.99 in 10.0 mi Calm Calm - N/A   Scattered Clouds
9:35 PM 5.0 °F - -0.4 °F 78% 30.00 in 10.0 mi Calm Calm - N/A   Scattered Clouds
9:55 PM 5.0 °F - -0.4 °F 78% 30.00 in 7.0 mi Calm Calm - N/A   Partly Cloudy
10:15 PM 1.4 °F - -0.4 °F 92% 30.01 in 7.0 mi Calm Calm - N/A   Clear
10:35 PM -0.4 °F - -4.0 °F 85% 30.01 in 1.8 mi Calm Calm - N/A   Haze
10:55 PM 1.4 °F - -0.4 °F 92% 30.02 in 3.0 mi Calm Calm - N/A   Mostly Cloudy
11:15 PM -0.4 °F - -5.8 °F 78% 30.03 in 10.0 mi Calm Calm - N/A   Partly Cloudy
11:35 PM -2.2 °F - -5.8 °F 85% 30.03 in 10.0 mi Calm Calm - N/A   Clear
11:55 PM -2.2 °F -10.4 °F -7.6 °F 78% 30.03 in 10.0 mi SSW 3.5 mph - N/A   Clear